Weather in Stepurino

Russia / Tver Oblast     56°23′30″N   35°15′47″E
temp.,
°C
wind,
m/s
gust,
m/s
humid.,
%
clouds,
%
prec.,
mm/h
press.,
hPa
HPBL,
m
21 april, wed
wed2100:00+4e3693100 0.4 1013877
03:00+3ne2598100 0.8 1010539
06:00+3nne2598100 0.8 1007522
09:00+2nnw2599100 2.5 1005274
12:00+2wnw2599100 1.1 1005356
15:00+4wnw4787100 1.2 1006957
18:00+5w3786100 0.1 1007683
21:00+4ssw269117 0.1 1009186
22 april, thu
thu2200:00+2ssw389261 0.0 1010144
03:00+2ssw399568 0.0 1011177
06:00+2ssw3109534 0.0 1012225
09:00+7ssw487412 0.0 1012485
12:00+11ssw586098 0.0 10131259
15:00+13s685532 0.3 10121645
18:00+12s596252 0.8 10121124
21:00+9sse5137977 0.8 1012501
23 april, fri
fri2300:00+7s4128978 0.0 1012378
03:00+6sse399638 0.0 1012225
06:00+7sse5148888 0.0 1011597
09:00+10s51180100 0.1 1012988
12:00+6nw3489100 0.4 1014267
15:00+7nw2279100 0.5 1013461
18:00+5wnw1191100 3.3 1014178
21:00+5nnw1395100 4.8 1012178
24 april, sat
sat2400:00+4nnw2397100 10.8 1011229
03:00+2nw2599100 21.1 1009297
06:00+3wnw3998100 3.3 1008563
09:00+3w4897100 5.3 1008396
12:00+4wsw3696100 1.0 1009572
15:00+7wnw1369100 1.4 1008908
18:00+7wsw2470100 1.0 1008550
21:00+3wsw248384 1.3 100980
25 april, sun
sun2500:00+1wsw37895 0.0 1009161
03:000sw38955 0.0 1009207
06:000wsw379696 0.0 1010412
09:00+1wsw4680100 0.0 1011901
12:00+4wsw456675 0.0 10121227
15:00+7sw455485 0.3 10111378
18:00+6sw346372 0.6 1012922
21:00+2sw22835 1.0 101330